Weather in Vasino

Russia / Smolensk Oblast     54°57′19″N   33°37′00″E
temp.,
°C
wind,
m/s
gust,
m/s
humid.,
%
clouds,
%
prec.,
mm/h
press.,
hPa
HPBL,
m
23 april, fri
fri2300:00+7s3108944 0.0 1012210
03:00+6s4119480 0.1 1011340
06:00+7wsw3695100 0.6 1011483
09:00+5sw2690100 4.5 1012761
12:00+7ssw467292 0.9 10131128
15:00+10sw694998 1.1 10122198
18:00+8sw4758100 0.0 10121190
21:00+4w2574100 0.1 1013112
24 april, sat
sat2400:00+3wsw2377100 0.0 101284
03:00+2wsw2586100 0.0 1011157
06:000w25935 0.0 1010124
09:00+4wnw347763 0.0 1010815
12:00+5nw4562100 0.6 10101367
15:00+7nw5649100 0.9 10091776
18:00+6wnw6853100 0.3 10101607
21:00+2w410715 0.3 1012307
25 april, sun
sun2500:000wsw4108292 0.0 1013276
03:00−1sw38905 0.0 1013234
06:00−1wsw399071 0.0 1012346
09:00+1w4784100 0.5 1012744
12:00+5wsw6851100 0.8 10121902
15:00+5w7853100 1.2 10121760
18:00+4w5763100 0.4 10121196
21:00+1wsw37815 0.4 1013161
26 april, mon
mon2600:000wsw39885 0.0 1013226
03:00−1wsw38915 0.0 1013196
06:00−1sw37905 0.0 1014241
09:00+3wsw46645 0.0 1013914
12:00+5wsw5654100 0.6 10121678
15:00+7wsw4647100 1.2 10111981
18:00+6sw355446 0.2 10101373
21:00+1sw347096 0.4 101049
27 april, tue
tue2700:000wsw368637 0.0 1010123
03:00−1wsw25936 0.0 1010113
06:00−1wsw389233 0.0 1010250
09:00+3w576990 0.0 10111165
12:00+4w5760100 0.1 10111428
15:00+6wnw575288 0.1 10111639
18:00+5w56565 0.0 10121554
21:00+1sw22725 0.0 101326